Regional Weather Roundup
Issued by NWS

Home | Current Version | Previous Version | Text Only | Print | Product List | Glossary Off
Versions: 1 2 3 4 5 6 7 8 9 10 11 12 13 14 15 16 17 18 19 20 21 22 23 24 25 26 27 28 29 30 31 32 33 34 35 36 37 38 39 40 41 42 43 44 45 46 47 48 49 50

000
ASUS45 KPSR 010400
RWRAZ

ARIZONA HOURLY REGIONAL WEATHER ROUNDUP
NATIONAL WEATHER SERVICE PHOENIX AZ
900 PM MST MON AUG 31 2015

NOTE: FAIR INDICATES FEW OR NO CLOUDS BELOW 12,000 FEET WITH NO
SIGNIFICANT WEATHER AND/OR OBSTRUCTIONS TO VISIBILITY.

AZZ001>003-036-010500-
NORTHWEST ARIZONA

CITY           SKY/WX    TMP DP  RH WIND       PRES   REMARKS
KINGMAN        CLEAR     81  46  29 S9        29.96R
$$

AZZ004>008-015-016-018-010500-
NORTH CENTRAL ARIZONA

CITY           SKY/WX    TMP DP  RH WIND       PRES   REMARKS
GRAND CANYON   MOCLDY    64  50  60 SE7         N/A
WILLIAMS       PTCLDY    64  48  55 S10       30.31R
PRESCOTT       PTCLDY    76  55  48 SE5       30.14R
FLAGSTAFF      NOT AVBL
PAYSON         MOCLDY    68  55  64 CALM      30.20R
PAGE           PTCLDY    77  55  46 SW7       30.06R
$$

AZZ009>014-017-010500-
NORTHEAST ARIZONA

CITY           SKY/WX    TMP DP  RH WIND       PRES   REMARKS
WINSLOW        NOT AVBL
SAINT JOHNS    CLOUDY    65  54  67 SW5       30.26R
WINDOW ROCK    CLOUDY    65  50  58 SE9       30.31R
SHOW LOW       LGT RAIN  57  55  94 W5        30.32S
$$

AZZ023-010500-
GREATER PHOENIX AREA

CITY           SKY/WX    TMP DP  RH WIND       PRES   REMARKS
PHOENIX          N/A     83  69  62 MISG      29.82F THUNDER
LUKE AFB       PTCLDY    90  60  36 SE12      29.80R
DEER VALLEY    MOCLDY    89  57  33 SE13G26   29.82R
SCOTTSDALE     TSTM      85  61  44 VRB3G25   29.89R
MESA-GATEWAY   MOCLDY    75  70  83 N9G17     29.89R
CHANDLER       RAIN      93  59  31 N23G36    29.85R
$$

AZZ027-028-010500-
SOUTHWEST MARICOPA COUNTY AND PINAL COUNTY

CITY           SKY/WX    TMP DP  RH WIND       PRES   REMARKS
CASA GRANDE    MOCLDY    88  64  45 S8G20     29.87R
$$

AZZ503-504-507>509-010500-
SOUTHEAST ARIZONA

CITY           SKY/WX    TMP DP  RH WIND       PRES   REMARKS
TUCSON         CLOUDY    87  59  38 S6        30.01R THUNDER
DAVIS-MONTHAN  MOCLDY    86  61  42 VRB2G20   29.99R THUNDER HAZE
NOGALES        CLOUDY    72  64  76 SW3       30.10R
SIERRA VISTA   CLOUDY    74  59  60 E6        30.14R
SAFFORD        LGT RAIN  73  66  78 SW6       30.11R
$$

AZZ020-021-025-026-031-010500-
SOUTHWEST ARIZONA

CITY           SKY/WX    TMP DP  RH WIND       PRES   REMARKS
YUMA           MOCLDY    93  65  39 S20       29.73R
$$

CAZ031-033-041-043-047-048-061-010500-
SOUTHERN CALIFORNIA

CITY           SKY/WX    TMP DP  RH WIND       PRES   REMARKS
DOWNTOWN L.A.  PTCLDY    71  64  78 CALM      29.87R
L.A. AIRPORT   PTCLDY    70  65  84 W6        29.88R
SAN DIEGO      CLOUDY    71  61  70 S9        29.91R
BURBANK        CLEAR     73  63  70 S6        29.88R
ONTARIO        CLEAR     73  59  61 W7        29.89R
RIVERSIDE      CLEAR     73  61  65 W5        29.89R
PALM SPRINGS   CLEAR     93  49  22 NW22G31   29.75R
EL CENTRO NAS  PTCLDY    92  37  14 W13       29.71R
IMPERIAL       CLEAR     92  42  17 W10       29.69R
BLYTHE         CLEAR     99  40  13 SW12      29.71R
$$

NVZ020-UTZ003-010500-
SOUTHERN NEVADA-UTAH

CITY           SKY/WX    TMP DP  RH WIND       PRES   REMARKS
LAS VEGAS      NOT AVBL
SALT LAKE CITY PTCLDY    74  42  31 S5        29.96R
$$

NMZ009-TXZ055-010500-
NEW MEXICO-WEST TEXAS

CITY           SKY/WX    TMP DP  RH WIND       PRES   REMARKS
ALBUQUERQUE    MOCLDY    76  47  35 SE5       30.14S
EL PASO        PTCLDY    86  43  22 SW7       30.02R
$$


........................KEY........................
SKY/WX - SKY CONDITION/WEATHER
TMP    - TEMPERATURE IN FAHRENHEIT
DP     - DEW POINT IN FAHRENHEIT
RH     - RELATIVE HUMIDITY IN PERCENT
WIND   - DIRECTION AND SPEED IN MILES PER HOUR (MPH)
VRB    - VARIABLE WIND DIRECTION
PRES   - MEAN SEA LEVEL PRESSURE IN INCHES OF MERCURY
         F - FALLING PRESSURE   R - RISING PRESSURE
         S - STEADY PRESSURE
VSB    - VISIBILITY IN MILES
HX     - HEAT INDEX IN FAHRENHEIT
WCI    - WIND CHILL INDEX IN FAHRENHEIT
TC     - TEMPERATURE IN CELSIUS WHICH IS ALSO KNOWN AS
         TEMPERATURE IN CENTIGRADE
AFB    - AIR FORCE BASE
         LUKE AFB IS LUKE AIR FORCE BASE
         DAVIS-MONTHAN IS DAVIS-MONTHAN AIR FORCE BASE
NAS    - NAVAL AIR STATION
         EL CENTRO NAS IS EL CENTRO NAVAL AIR STATION
N/A    - NOT AVAILABLE



USA.gov is the U.S. government's official web portal to all federal, state and local government web resources and services.